Overview Statistics Trail Chart Weather Telemetry Raw packets
 

This is the latest recevied weather packets stored in our database for station/object AA7VG. If no packets are shown the sender has not sent any weather packets the latest 10 day(s).

<< 9 10 11 12 13 14 15 >>
Time Temp. Humidity Pressure Rain* Wind** Luminosity Snow
1788548357 26.11° C 25% 1011 hPa 0 mm - - -
1788548053 26.67° C 25% 1010.7 hPa 0 mm - - -
1788547753 26.11° C 25% 1010.6 hPa 0 mm - - -
1788547447 26.11° C 25% 1011.1 hPa 0 mm - - -
1788547142 25.56° C 25% 1010.9 hPa 0 mm - - -
1788546837 25.56° C 26% 1010.7 hPa 0 mm - - -
1788546533 25° C 25% 1011.1 hPa 0 mm - - -
1788546228 25° C 25% 1010.7 hPa 0 mm - - -
1788545923 25° C 26% 1010.9 hPa 0 mm - - -
1788545618 25° C 25% 1010.9 hPa 0 mm - - -
1788545314 24.44° C 25% 1011 hPa 0 mm - - -
1788545009 24.44° C 26% 1010.7 hPa 0 mm - - -
1788544708 23.33° C 28% 1010.7 hPa 0 mm - - -
1788544407 23.89° C 26% 1010.4 hPa 0 mm - - -
1788544107 23.89° C 27% 1010.4 hPa 0 mm - - -
1788543803 23.33° C 27% 1010.4 hPa 0 mm - - -
1788543499 23.33° C 28% 1010.6 hPa 0 mm - - -
1788543194 24.44° C 27% 1010.6 hPa 0 mm - - -
1788542890 23.89° C 28% 1010.3 hPa 0 mm - - -
1788542589 23.89° C 28% 1010.2 hPa 0 mm - - -
1788542284 23.89° C 28% 1010.1 hPa 0 mm - - -
1788541979 23.33° C 29% 1010.2 hPa 0 mm - - -
1788541675 24.44° C 27% 1010.3 hPa 0 mm - - -
1788541371 23.89° C 27% 1010.2 hPa 0 mm - - -
1788541070 23.89° C 25% 1010.2 hPa 0 mm - - -

* Rain latest hour (hover to see other rain measurements)
** Current wind speed in m/s (hover to see current wind gust speed)